�������l�o���
Date,Time,MP-1(��Sv/h),MP-2(��Sv/h),MP-3(��Sv/h),MP-4(��Sv/h),MP-5(��Sv/h),MP-6(��Sv/h),MP-7(��Sv/h),MP-8(��Sv/h),����,����(m/s),���J
2021/01/01,00:00,0.660,0.934,0.600,1.184,0.833,0.374,0.669,0.631,��,7.0,��
2021/01/01,00:10,0.659,0.937,0.602,1.186,0.832,0.374,0.669,0.630,��,6.6,��
2021/01/01,00:20,0.659,0.938,0.600,1.182,0.832,0.374,0.668,0.630,��,6.9,��
2021/01/01,00:30,0.660,0.937,0.602,1.184,0.834,0.373,0.668,0.630,��,6.7,��
2021/01/01,00:40,0.659,0.937,0.600,1.185,0.831,0.373,0.668,0.629,��,8.4,��
2021/01/01,00:50,0.658,0.936,0.600,1.183,0.834,0.373,0.667,0.629,��,7.8,��
2021/01/01,01:00,0.658,0.939,0.600,1.186,0.834,0.375,0.669,0.629,���쐼,7.4,��
2021/01/01,01:10,0.660,0.937,0.601,1.184,0.831,0.376,0.669,0.630,�쐼,5.9,��
2021/01/01,01:20,0.661,0.937,0.600,1.185,0.834,0.373,0.667,0.632,��쐼,3.1,��
2021/01/01,01:30,0.660,0.939,0.601,1.185,0.830,0.375,0.668,0.629,��,4.6,��
2021/01/01,01:40,0.659,0.937,0.601,1.182,0.831,0.373,0.669,0.630,��쐼,4.2,��
2021/01/01,01:50,0.658,0.937,0.600,1.183,0.830,0.373,0.668,0.630,��쐼,3.8,��
2021/01/01,02:00,0.659,0.938,0.600,1.186,0.831,0.374,0.668,0.630,�쐼,2.3,��
2021/01/01,02:10,0.658,0.937,0.600,1.185,0.832,0.375,0.669,0.629,�쐼,3.6,��
2021/01/01,02:20,0.658,0.938,0.601,1.184,0.834,0.374,0.669,0.630,���쐼,5.0,��
2021/01/01,02:30,0.660,0.936,0.601,1.185,0.834,0.376,0.667,0.631,���쐼,6.0,��
2021/01/01,02:40,0.660,0.938,0.601,1.184,0.830,0.374,0.669,0.629,���쐼,4.6,��
2021/01/01,02:50,0.660,0.939,0.601,1.183,0.832,0.375,0.668,0.630,���쐼,8.0,��
2021/01/01,03:00,0.660,0.938,0.599,1.181,0.831,0.375,0.670,0.629,���쐼,9.6,��
2021/01/01,03:10,0.660,0.937,0.602,1.184,0.829,0.373,0.670,0.629,���쐼,9.5,��
2021/01/01,03:20,0.661,0.938,0.599,1.184,0.832,0.376,0.668,0.630,���쐼,9.7,��
2021/01/01,03:30,0.660,0.937,0.600,1.184,0.829,0.376,0.669,0.630,���쐼,10.4,��
2021/01/01,03:40,0.660,0.935,0.599,1.185,0.829,0.374,0.671,0.631,���쐼,9.0,��
2021/01/01,03:50,0.662,0.936,0.597,1.185,0.828,0.375,0.670,0.630,���쐼,8.1,��
2021/01/01,04:00,0.660,0.935,0.600,1.185,0.831,0.373,0.671,0.630,���쐼,7.6,��
2021/01/01,04:10,0.660,0.936,0.601,1.184,0.829,0.375,0.669,0.632,�쐼,7.5,��
2021/01/01,04:20,0.660,0.937,0.600,1.186,0.830,0.374,0.670,0.632,���쐼,6.8,��
2021/01/01,04:30,0.659,0.935,0.602,1.186,0.831,0.374,0.669,0.630,�k�k��,3.3,��
2021/01/01,04:40,0.659,0.936,0.601,1.182,0.832,0.374,0.668,0.629,�k�k��,6.3,��
2021/01/01,04:50,0.660,0.935,0.602,1.184,0.831,0.374,0.669,0.630,�k�k��,4.6,��
2021/01/01,05:00,0.659,0.936,0.601,1.183,0.834,0.375,0.670,0.630,�k��,3.6,��
2021/01/01,05:10,0.660,0.937,0.600,1.183,0.832,0.374,0.668,0.630,�k��,4.5,��
2021/01/01,05:20,0.660,0.934,0.599,1.183,0.832,0.374,0.669,0.630,�k��,4.3,��
2021/01/01,05:30,0.658,0.937,0.600,1.185,0.835,0.375,0.669,0.631,���k��,4.6,��
2021/01/01,05:40,0.659,0.936,0.600,1.185,0.831,0.376,0.669,0.631,���k��,5.3,��
2021/01/01,05:50,0.658,0.935,0.600,1.184,0.833,0.375,0.670,0.629,���k��,6.0,��
2021/01/01,06:00,0.659,0.936,0.600,1.184,0.832,0.375,0.669,0.631,���k��,6.7,��
2021/01/01,06:10,0.658,0.936,0.599,1.188,0.832,0.374,0.669,0.630,���k��,6.0,��
2021/01/01,06:20,0.660,0.937,0.601,1.185,0.833,0.374,0.671,0.630,�k��,4.5,��
2021/01/01,06:30,0.656,0.936,0.601,1.184,0.834,0.372,0.669,0.629,�k,6.1,��
2021/01/01,06:40,0.658,0.936,0.601,1.184,0.830,0.375,0.669,0.630,�k�k��,7.4,��
2021/01/01,06:50,0.657,0.935,0.601,1.184,0.832,0.373,0.670,0.630,�k,8.2,��
2021/01/01,07:00,0.658,0.936,0.602,1.186,0.833,0.375,0.668,0.630,�k,7.5,��
2021/01/01,07:10,0.657,0.935,0.600,1.183,0.832,0.374,0.668,0.631,�k�k��,7.1,��
2021/01/01,07:20,0.659,0.935,0.601,1.186,0.833,0.373,0.668,0.632,�k�k��,6.5,��
2021/01/01,07:30,0.659,0.936,0.600,1.184,0.834,0.374,0.669,0.629,�k�k��,5.1,��
2021/01/01,07:40,0.656,0.937,0.599,1.184,0.831,0.374,0.668,0.630,�k�k��,4.2,��
2021/01/01,07:50,0.658,0.937,0.602,1.184,0.833,0.373,0.669,0.631,�k�k��,4.0,��
2021/01/01,08:00,0.658,0.936,0.601,1.184,0.832,0.374,0.670,0.630,�k�k��,5.4,��
2021/01/01,08:10,0.658,0.938,0.600,1.185,0.831,0.374,0.667,0.630,�k,5.2,��
2021/01/01,08:20,0.657,0.936,0.599,1.185,0.832,0.375,0.670,0.631,�k,5.7,��
2021/01/01,08:30,0.657,0.937,0.599,1.185,0.832,0.374,0.668,0.629,�k�k��,6.1,��
2021/01/01,08:40,0.659,0.936,0.601,1.185,0.831,0.374,0.670,0.630,�k�k��,6.0,��
2021/01/01,08:50,0.659,0.937,0.600,1.184,0.833,0.375,0.669,0.629,�k�k��,4.5,��
2021/01/01,09:00,0.660,0.937,0.602,1.184,0.833,0.373,0.668,0.630,�k�k��,3.9,��
2021/01/01,09:10,0.659,0.938,0.600,1.184,0.833,0.374,0.670,0.629,�k��,3.0,��
2021/01/01,09:20,0.660,0.939,0.601,1.184,0.834,0.374,0.668,0.631,�k�k��,2.6,��
2021/01/01,09:30,0.657,0.937,0.601,1.184,0.834,0.375,0.670,0.629,�k�k��,4.0,��
2021/01/01,09:40,0.661,0.940,0.601,1.184,0.835,0.375,0.671,0.631,�k�k��,4.2,��
2021/01/01,09:50,0.659,0.939,0.599,1.186,0.835,0.373,0.670,0.631,�k,3.9,��
2021/01/01,10:00,0.659,0.939,0.602,1.185,0.835,0.376,0.669,0.631,�k,4.7,��
2021/01/01,10:10,0.658,0.939,0.600,1.186,0.835,0.375,0.671,0.629,�k,6.3,��
2021/01/01,10:20,0.661,0.941,0.601,1.186,0.836,0.375,0.670,0.630,�k,5.5,��
2021/01/01,10:30,0.660,0.941,0.603,1.185,0.836,0.376,0.669,0.630,�k,5.9,��
2021/01/01,10:40,0.660,0.942,0.601,1.185,0.835,0.374,0.668,0.630,�k,5.4,��
2021/01/01,10:50,0.662,0.941,0.603,1.184,0.835,0.376,0.668,0.631,�k,5.7,��
2021/01/01,11:00,0.661,0.942,0.603,1.184,0.835,0.375,0.667,0.631,�k,6.4,��
2021/01/01,11:10,0.658,0.942,0.603,1.186,0.836,0.376,0.668,0.631,�k,5.8,��
2021/01/01,11:20,0.660,0.942,0.602,1.186,0.836,0.375,0.669,0.630,�k,5.9,��
2021/01/01,11:30,0.661,0.939,0.603,1.189,0.837,0.375,0.670,0.631,�k,5.4,��
2021/01/01,11:40,0.662,0.942,0.604,1.188,0.836,0.375,0.669,0.632,�k�k��,4.3,��
2021/01/01,11:50,0.662,0.942,0.604,1.186,0.837,0.376,0.669,0.632,�k�k��,3.6,��
2021/01/01,12:00,0.662,0.941,0.605,1.188,0.839,0.375,0.669,0.631,�k�k��,3.7,��
2021/01/01,12:10,0.661,0.942,0.603,1.189,0.837,0.376,0.670,0.632,�k�k��,2.5,��
2021/01/01,12:20,0.662,0.945,0.603,1.187,0.838,0.375,0.671,0.632,�k,2.6,��
2021/01/01,12:30,0.662,0.944,0.604,1.186,0.837,0.376,0.670,0.631,�k,2.3,��
2021/01/01,12:40,0.661,0.943,0.604,1.187,0.840,0.376,0.670,0.631,�k��,2.2,��
2021/01/01,12:50,0.664,0.941,0.604,1.186,0.839,0.377,0.671,0.631,�k�k��,2.0,��
2021/01/01,13:00,0.663,0.944,0.603,1.187,0.838,0.375,0.670,0.631,�k��,2.2,��
2021/01/01,13:10,0.663,0.942,0.604,1.186,0.840,0.376,0.670,0.632,�k��,2.6,��
2021/01/01,13:20,0.663,0.942,0.603,1.187,0.840,0.376,0.670,0.631,���k��,3.7,��
2021/01/01,13:30,0.662,0.943,0.604,1.187,0.839,0.376,0.669,0.631,�k�k��,2.6,��
2021/01/01,13:40,0.662,0.943,0.603,1.186,0.839,0.376,0.672,0.631,�k,1.7,��
2021/01/01,13:50,0.662,0.944,0.605,1.189,0.840,0.375,0.670,0.631,�k�k��,2.2,��
2021/01/01,14:00,0.660,0.945,0.606,1.188,0.841,0.376,0.671,0.633,�k�k��,3.3,��
2021/01/01,14:10,0.662,0.944,0.604,1.188,0.841,0.376,0.671,0.632,�k,5.1,��
2021/01/01,14:20,0.660,0.944,0.605,1.190,0.841,0.375,0.670,0.630,�k,3.6,��
2021/01/01,14:30,0.662,0.944,0.604,1.186,0.840,0.377,0.671,0.630,�k�k��,1.9,��
2021/01/01,14:40,0.662,0.943,0.604,1.187,0.840,0.376,0.671,0.632,�k�k��,2.0,��
2021/01/01,14:50,0.663,0.943,0.604,1.187,0.840,0.375,0.670,0.632,�k�k��,2.3,��
2021/01/01,15:00,0.663,0.946,0.605,1.190,0.841,0.376,0.671,0.630,���k��,0.8,��
2021/01/01,15:10,0.662,0.943,0.604,1.188,0.842,0.374,0.671,0.629,��쐼,2.6,��
2021/01/01,15:20,0.662,0.944,0.604,1.187,0.839,0.376,0.670,0.631,�쐼,5.6,��
2021/01/01,15:30,0.662,0.944,0.605,1.189,0.839,0.376,0.670,0.630,��,4.2,��
2021/01/01,15:40,0.660,0.945,0.604,1.189,0.839,0.377,0.670,0.630,��,3.7,��
2021/01/01,15:50,0.662,0.944,0.604,1.190,0.840,0.376,0.669,0.632,��,3.8,��
2021/01/01,16:00,0.661,0.944,0.604,1.188,0.838,0.377,0.670,0.633,��,4.0,��
2021/01/01,16:10,0.663,0.947,0.605,1.189,0.839,0.376,0.670,0.631,���k��,3.0,��
2021/01/01,16:20,0.661,0.945,0.605,1.189,0.839,0.377,0.669,0.630,�k,3.3,��
2021/01/01,16:30,0.661,0.945,0.604,1.187,0.841,0.376,0.670,0.631,�k�k��,3.6,��
2021/01/01,16:40,0.660,0.945,0.604,1.187,0.841,0.375,0.670,0.630,�k�k��,3.3,��
2021/01/01,16:50,0.660,0.943,0.602,1.189,0.840,0.376,0.669,0.630,�k�k��,2.6,��
2021/01/01,17:00,0.660,0.944,0.604,1.188,0.840,0.376,0.670,0.630,�k�k��,1.9,��
2021/01/01,17:10,0.661,0.944,0.603,1.189,0.838,0.375,0.669,0.629,�k�k��,2.0,��
2021/01/01,17:20,0.660,0.942,0.603,1.189,0.838,0.376,0.670,0.631,�k�k��,2.6,��
2021/01/01,17:30,0.662,0.944,0.603,1.189,0.839,0.374,0.667,0.630,�k�k��,1.2,��
2021/01/01,17:40,0.662,0.943,0.603,1.187,0.841,0.376,0.668,0.632,�k��,1.7,��
2021/01/01,17:50,0.660,0.943,0.604,1.188,0.840,0.375,0.669,0.630,�k��,1.4,��
2021/01/01,18:00,0.660,0.944,0.603,1.189,0.839,0.374,0.668,0.630,�k�k��,2.3,��
2021/01/01,18:10,0.659,0.943,0.601,1.188,0.840,0.375,0.668,0.630,�k�k��,2.6,��
2021/01/01,18:20,0.658,0.944,0.603,1.187,0.841,0.374,0.669,0.630,�k�k��,2.0,��
2021/01/01,18:30,0.658,0.944,0.603,1.187,0.839,0.373,0.667,0.630,�k�k��,2.6,��
2021/01/01,18:40,0.660,0.944,0.601,1.188,0.838,0.374,0.667,0.631,�k�k��,2.0,��
2021/01/01,18:50,0.660,0.943,0.602,1.187,0.836,0.374,0.669,0.631,�k�k��,1.9,��
2021/01/01,19:00,0.659,0.944,0.604,1.187,0.838,0.375,0.668,0.629,�k�k��,2.0,��
2021/01/01,19:10,0.661,0.942,0.602,1.187,0.838,0.374,0.666,0.630,�k�k��,2.8,��
2021/01/01,19:20,0.660,0.943,0.602,1.187,0.838,0.374,0.669,0.630,�k�k��,3.5,��
2021/01/01,19:30,0.659,0.942,0.603,1.187,0.838,0.375,0.669,0.631,�k�k��,3.3,��
2021/01/01,19:40,0.659,0.943,0.603,1.188,0.838,0.375,0.669,0.630,�k�k��,3.8,��
2021/01/01,19:50,0.660,0.943,0.602,1.186,0.837,0.375,0.668,0.630,�k,3.4,��
2021/01/01,20:00,0.659,0.941,0.603,1.189,0.839,0.374,0.667,0.629,�k,3.0,��
2021/01/01,20:10,0.658,0.942,0.601,1.186,0.837,0.375,0.666,0.629,�k��,3.3,��
2021/01/01,20:20,0.660,0.941,0.603,1.187,0.840,0.375,0.667,0.631,�k��,2.8,��
2021/01/01,20:30,0.660,0.942,0.601,1.187,0.836,0.375,0.669,0.630,���k��,1.5,��
2021/01/01,20:40,0.661,0.941,0.602,1.185,0.837,0.374,0.668,0.630,�k��,1.9,��
2021/01/01,20:50,0.659,0.941,0.601,1.190,0.838,0.376,0.667,0.631,�k��,1.2,��
2021/01/01,21:00,0.660,0.942,0.603,1.186,0.838,0.375,0.668,0.629,�k��,1.2,��
2021/01/01,21:10,0.658,0.942,0.602,1.185,0.840,0.375,0.668,0.631,�k�k��,1.9,��
2021/01/01,21:20,0.659,0.940,0.601,1.188,0.838,0.374,0.668,0.631,�k,1.7,��
2021/01/01,21:30,0.659,0.940,0.601,1.188,0.838,0.375,0.668,0.630,�k�k��,0.9,��
2021/01/01,21:40,0.661,0.940,0.603,1.184,0.835,0.377,0.668,0.630,-,CALM,��
2021/01/01,21:50,0.659,0.940,0.601,1.187,0.837,0.374,0.668,0.630,���k��,1.2,��
2021/01/01,22:00,0.661,0.942,0.601,1.185,0.837,0.374,0.667,0.630,�k�k��,0.9,��
2021/01/01,22:10,0.659,0.941,0.600,1.185,0.836,0.374,0.667,0.630,�k,2.0,��
2021/01/01,22:20,0.659,0.942,0.602,1.185,0.836,0.374,0.667,0.631,�k,2.6,��
2021/01/01,22:30,0.659,0.942,0.601,1.187,0.838,0.375,0.668,0.630,�k,2.8,��
2021/01/01,22:40,0.658,0.941,0.601,1.186,0.837,0.374,0.667,0.629,�k,2.5,��
2021/01/01,22:50,0.657,0.941,0.603,1.187,0.839,0.375,0.667,0.629,�k,2.3,��
2021/01/01,23:00,0.659,0.939,0.603,1.187,0.838,0.374,0.666,0.632,�k,2.3,��
2021/01/01,23:10,0.659,0.942,0.601,1.187,0.836,0.376,0.668,0.630,�k�k��,1.7,��
2021/01/01,23:20,0.660,0.942,0.602,1.186,0.836,0.375,0.667,0.630,�k�k��,2.0,��
2021/01/01,23:30,0.660,0.941,0.602,1.184,0.836,0.375,0.667,0.631,�k�k��,1.7,��
2021/01/01,23:40,0.662,0.942,0.603,1.185,0.838,0.374,0.668,0.629,�k�k��,1.9,��
2021/01/01,23:50,0.661,0.941,0.601,1.185,0.837,0.376,0.668,0.630,�k,2.6,��
